Kremmling, CO

12:08 PM MST on November 18, 2019 (GMT -0700)
Kremmling

Weather History for K20V - September, 2019

Change the Weather History Date:

Monday, September 30, 2019

  Actual Average Record
Temperature  
Mean Temperature 60 °F -  
Max Temperature 75 °F - 80 °F (2010)
Min Temperature 44 °F - 26 °F (2006)
Degree Days  
Heating Degree Days 6    
Month to date heating degree days  
Cooling Degree Days 0    
Month to date cooling degree days  
Growing Degree Days 10 (Base 50)    
Moisture  
Dew Point 27 °F    
Average Humidity 31    
Maximum Humidity 54    
Minimum Humidity 13    
Precipitation  
Precipitation 0.00 in - 0.58 in (2004)
Snow  
Snow - - - ()
Snow Depth -    
Sea Level Pressure  
Sea Level Pressure 29.92 in    
Wind  
Wind Speed 10 mph ()    
Max Wind Speed 22 mph    
Max Gust Speed 33 mph    
Visibility 10.0 miles    
Events      
T = Trace of Precipitation, MM = Missing Value Source: Averaged Metar Reports

Daily Weather History Graph

Daily Weather History Graph

Search for Another Location

Airport or City:

Astronomy

Sep. 30, 2019 Rise Set
Actual Time 7:00 AM MDT 6:49 PM MDT
Civil Twilight 6:33 AM MDT 7:16 PM MDT
Nautical Twilight 6:02 AM MDT 7:48 PM MDT
Astronomical Twilight 5:30 AM MDT 8:19 PM MDT
Moon 9:08 AM MDT (9/30) 8:27 PM MDT (9/30)
Length of Visible Light 12h 43m
Length of Day
11h 49m
Waxing Crescent, 6% of the Moon is Illuminated
Sep 30
Waxing Crescent
Oct 5
First Quarter
Oct 13
Full
Oct 21
Last Quarter
Oct 27
New

Hourly Weather History & Observations

Time (MDT) Temp. Dew Point Humidity Pressure Visibility Wind Dir Wind Speed Gust Speed Precip Events Conditions
12:12 AM 55.4 °F 33.8 °F 44% 29.87 in 10.0 mi Calm Calm - N/A   Overcast
12:30 AM 53.6 °F 32.0 °F 44% 29.87 in 10.0 mi SE 3.5 mph - N/A   Mostly Cloudy
12:53 AM 50.0 °F 32.0 °F 50% 29.87 in 10.0 mi Calm Calm - N/A   Scattered Clouds
1:12 AM 48.2 °F 32.0 °F 54% 29.88 in 10.0 mi Calm Calm - N/A   Clear
1:30 AM 48.2 °F 32.0 °F 54% 29.89 in 10.0 mi North 3.5 mph - N/A   Clear
1:48 AM 48.2 °F 32.0 °F 54% 29.89 in 10.0 mi South 5.8 mph - N/A   Clear
2:12 AM 53.6 °F 32.0 °F 44% 29.89 in 10.0 mi SW 11.5 mph 20.7 mph N/A   Clear
2:30 AM 55.4 °F 30.2 °F 38% 29.90 in 10.0 mi SW 13.8 mph 26.5 mph N/A   Clear
2:48 AM 55.4 °F 30.2 °F 38% 29.89 in 10.0 mi WSW 19.6 mph 27.6 mph N/A   Clear
3:12 AM 55.4 °F 30.2 °F 38% 29.90 in 10.0 mi SW 18.4 mph 29.9 mph N/A   Clear
3:30 AM 55.4 °F 30.2 °F 38% 29.90 in 10.0 mi SW 16.1 mph 25.3 mph N/A   Clear
3:48 AM 55.4 °F 30.2 °F 38% 29.91 in 10.0 mi SW 20.7 mph 28.8 mph N/A   Clear
4:12 AM 55.4 °F 28.4 °F 36% 29.91 in 10.0 mi SW 12.7 mph 21.9 mph N/A   Clear
4:30 AM 53.6 °F 28.4 °F 38% 29.92 in 10.0 mi SW 12.7 mph 16.1 mph N/A   Clear
4:48 AM 53.6 °F 30.2 °F 41% 29.92 in 10.0 mi SSW 9.2 mph - N/A   Clear
5:12 AM 53.6 °F 32.0 °F 44% 29.93 in 10.0 mi South 9.2 mph 17.3 mph N/A   Clear
5:30 AM 50.0 °F 30.2 °F 47% 29.93 in 10.0 mi South 8.1 mph - N/A   Clear
5:48 AM 50.0 °F 30.2 °F 47% 29.94 in 10.0 mi SSW 9.2 mph 19.6 mph N/A   Clear
6:13 AM 50.0 °F 30.2 °F 47% 29.94 in 10.0 mi South 10.4 mph - N/A   Clear
6:32 AM 50.0 °F 30.2 °F 47% 29.94 in 10.0 mi SSW 8.1 mph - N/A   Clear
6:52 AM 53.6 °F 30.2 °F 41% 29.95 in 10.0 mi SW 15.0 mph 23.0 mph N/A   Clear
7:13 AM 50.0 °F 30.2 °F 47% 29.95 in 10.0 mi SSW 12.7 mph 20.7 mph N/A   Clear
7:28 AM 53.6 °F 30.2 °F 41% 29.96 in 10.0 mi South 6.9 mph 18.4 mph N/A   Clear
7:47 AM 48.2 °F 32.0 °F 54% 29.97 in 10.0 mi SE 8.1 mph - N/A   Clear
8:08 AM 50.0 °F 32.0 °F 50% 29.97 in 10.0 mi SE 5.8 mph - N/A   Clear
8:32 AM 53.6 °F 32.0 °F 44% 29.97 in 10.0 mi SE 8.1 mph - N/A   Clear
8:50 AM 55.4 °F 32.0 °F 41% 29.97 in 10.0 mi SSW 12.7 mph 16.1 mph N/A   Clear
9:07 AM 59.0 °F 32.0 °F 36% 29.97 in 10.0 mi SSW 15.0 mph 21.9 mph N/A   Clear
9:32 AM 59.0 °F 32.0 °F 36% 29.97 in 10.0 mi SW 16.1 mph 25.3 mph N/A   Clear
9:50 AM 60.8 °F 32.0 °F 34% 29.97 in 10.0 mi SW 15.0 mph 23.0 mph N/A   Clear
10:12 AM 62.6 °F 30.2 °F 30% 29.96 in 10.0 mi WSW 18.4 mph 24.2 mph N/A   Clear
10:30 AM 62.6 °F 30.2 °F 30% 29.96 in 10.0 mi SW 12.7 mph 21.9 mph N/A   Clear
10:48 AM 64.4 °F 30.2 °F 28% 29.96 in 10.0 mi WSW 20.7 mph 26.5 mph N/A   Clear
11:12 AM 68.0 °F 30.2 °F 24% 29.96 in 10.0 mi WSW 21.9 mph 28.8 mph N/A   Clear
11:30 AM 68.0 °F 32.0 °F 26% 29.96 in 10.0 mi WSW 13.8 mph 23.0 mph N/A   Clear
11:48 AM 68.0 °F 30.2 °F 24% 29.96 in 10.0 mi WSW 19.6 mph 28.8 mph N/A   Clear
12:12 PM 68.0 °F 28.4 °F 23% 29.95 in 10.0 mi SW 21.9 mph 27.6 mph N/A   Clear
12:30 PM 68.0 °F 24.8 °F 20% 29.94 in 10.0 mi WSW 21.9 mph 29.9 mph N/A   Clear
12:48 PM 69.8 °F 23.0 °F 17% 29.94 in 10.0 mi WSW 19.6 mph 29.9 mph N/A   Clear
1:12 PM 69.8 °F 24.8 °F 18% 29.94 in 10.0 mi WSW 16.1 mph 33.4 mph N/A   Clear
1:29 PM 73.4 °F 26.6 °F 18% 29.93 in 10.0 mi SW 17.3 mph 23.0 mph N/A   Clear
1:47 PM 73.4 °F 24.8 °F 16% 29.93 in 10.0 mi WSW 19.6 mph 26.5 mph N/A   Clear
2:12 PM 73.4 °F 23.0 °F 15% 29.92 in 10.0 mi WSW 16.1 mph 23.0 mph N/A   Clear
2:29 PM 73.4 °F 23.0 °F 15% 29.92 in 10.0 mi SW 19.6 mph 25.3 mph N/A   Clear
2:47 PM 73.4 °F 23.0 °F 15% 29.91 in 10.0 mi WSW 19.6 mph 25.3 mph N/A   Clear
3:12 PM 73.4 °F 23.0 °F 15% 29.91 in 10.0 mi WSW 15.0 mph 25.3 mph N/A   Clear
3:30 PM 73.4 °F 23.0 °F 15% 29.91 in 10.0 mi SW 19.6 mph 27.6 mph N/A   Clear
3:48 PM 75.2 °F 23.0 °F 14% 29.90 in 10.0 mi WSW 21.9 mph 27.6 mph N/A   Clear
4:12 PM 73.4 °F 21.2 °F 14% 29.90 in 10.0 mi SW 17.3 mph 26.5 mph N/A   Clear
4:30 PM 75.2 °F 21.2 °F 13% 29.89 in 10.0 mi WSW 12.7 mph 24.2 mph N/A   Clear
4:48 PM 73.4 °F 21.2 °F 14% 29.89 in 10.0 mi SW 17.3 mph 21.9 mph N/A   Clear
5:12 PM 73.4 °F 19.4 °F 13% 29.89 in 10.0 mi WSW 17.3 mph 27.6 mph N/A   Clear
5:30 PM 73.4 °F 21.2 °F 14% 29.89 in 10.0 mi WSW 21.9 mph 31.1 mph N/A   Clear
5:48 PM 69.8 °F 19.4 °F 15% 29.89 in 10.0 mi West 17.3 mph 25.3 mph N/A   Clear
6:12 PM 69.8 °F 19.4 °F 15% 29.89 in 10.0 mi WSW 15.0 mph 23.0 mph N/A   Clear
6:30 PM 68.0 °F 21.2 °F 17% 29.89 in 10.0 mi WSW 13.8 mph 20.7 mph N/A   Clear
6:48 PM 68.0 °F 21.2 °F 17% 29.89 in 10.0 mi WSW 10.4 mph 18.4 mph N/A   Clear
7:12 PM 64.4 °F 19.4 °F 18% 29.90 in 10.0 mi West 12.7 mph 20.7 mph N/A   Clear
7:30 PM 62.6 °F 19.4 °F 19% 29.91 in 10.0 mi SW 8.1 mph 19.6 mph N/A   Clear
7:48 PM 60.8 °F 19.4 °F 20% 29.91 in 10.0 mi WSW 8.1 mph - N/A   Clear
8:12 PM 60.8 °F 21.2 °F 22% 29.91 in 10.0 mi West 5.8 mph 16.1 mph N/A   Clear
8:30 PM 59.0 °F 21.2 °F 23% 29.93 in 10.0 mi East 3.5 mph - N/A   Clear
8:48 PM 55.4 °F 21.2 °F 26% 29.94 in 10.0 mi Calm Calm - N/A   Clear
9:12 PM 53.6 °F 21.2 °F 28% 29.94 in 10.0 mi NNE 5.8 mph - N/A   Clear
9:30 PM 53.6 °F 21.2 °F 28% 29.94 in 10.0 mi North 8.1 mph - N/A   Clear
9:48 PM 53.6 °F 23.0 °F 30% 29.94 in 10.0 mi North 5.8 mph - N/A   Clear
10:12 PM 48.2 °F 23.0 °F 37% 29.94 in 10.0 mi Calm Calm - N/A   Clear
10:30 PM 48.2 °F 21.2 °F 34% 29.94 in 10.0 mi ESE 3.5 mph - N/A   Clear
10:48 PM 48.2 °F 23.0 °F 37% 29.94 in 10.0 mi NE 5.8 mph - N/A   Clear
11:12 PM 48.2 °F 23.0 °F 37% 29.94 in 10.0 mi Calm Calm - N/A   Clear
11:30 PM 44.6 °F 23.0 °F 43% 29.94 in 10.0 mi Calm Calm - N/A   Clear
11:48 PM 44.6 °F 24.8 °F 46% 29.94 in 10.0 mi Calm Calm - N/A   Clear